DW8945 Waltham MA US current weather conditions

sailwx.info

Wind from 218 at 0 knots gusting 3

Air temperature 1.7° C
Dewpoint -7.9° C

Last reported at 2019-Dec-08 20:08 UTC.
Time now 2019-Dec-08 20:39 UTC

Location: N 42°22' W 071°14'.
View on Google Maps.

See reports from other nearby stations

  
Tides and Currents Weather Stations Pressure Air Temp Water Temp Dewpoint Dewpoint Depression Visibility Wind Speed Wind Dir Waves Ship Positions
date/time (UTC)wind fromknots sea level pressurealtimeterstation pressurevisibilityair tempwater tempwave heightnotes
2019-Dec-08 20:08 218 0 gusting 3 1.7
2019-Dec-08 20:03 229 1 gusting 3 1.7
2019-Dec-08 19:59 218 0 gusting 3 1.7
2019-Dec-08 19:53 223 1.7
2019-Dec-08 19:48 217 1 gusting 5 2.2
2019-Dec-08 19:44 217 1 gusting 5 2.2
2019-Dec-08 19:39 207 0 gusting 5 2.2
2019-Dec-08 19:34 232 0 gusting 5 2.2
2019-Dec-08 19:29 223 2 gusting 6 2.2
2019-Dec-08 19:24 209 2 gusting 6 2.2
2019-Dec-08 19:19 236 1 gusting 7 2.2
2019-Dec-08 19:14 229 3 gusting 7 2.2
2019-Dec-08 19:08 248 2 gusting 6 2.2
2019-Dec-08 19:03 207 3 gusting 6 2.2
2019-Dec-08 18:58 254 1 gusting 5 2.2
2019-Dec-08 18:53 215 2 gusting 5 2.2
2019-Dec-08 18:48 217 1 gusting 5 2.2
2019-Dec-08 18:44 221 2 gusting 7 2.2
2019-Dec-08 18:39 191 4 gusting 7 2.2
2019-Dec-08 18:33 264 2 gusting 7 2.2
2019-Dec-08 18:28 248 3 gusting 5 2.2
2019-Dec-08 18:23 015 2.2
2019-Dec-08 18:18 250 1 gusting 5 2.2
2019-Dec-08 18:13 189 1 gusting 6 2.2
2019-Dec-08 18:08 267 0 gusting 6 1.7
2019-Dec-08 18:03 187 3 gusting 6 1.7
2019-Dec-08 17:59 189 1.7
2019-Dec-08 17:54 241 2 gusting 6 1.7
2019-Dec-08 17:49 225 1 gusting 5 1.7
2019-Dec-08 17:44 219 2 gusting 4 1.7
2019-Dec-08 17:38 304 1 gusting 6 1.7
2019-Dec-08 17:33 222 2 gusting 6 1.1
2019-Dec-08 17:28 188 1 gusting 6 1.1
2019-Dec-08 17:23 291 2 gusting 4 1.1
2019-Dec-08 17:18 295 1 gusting 4 1.1
2019-Dec-08 17:13 239 1 gusting 4 1.1
2019-Dec-08 17:09 223 1 gusting 2 1.1
2019-Dec-08 17:03 249 1.1
2019-Dec-08 16:59 211 2 gusting 6 1.1
2019-Dec-08 16:54 213 1 gusting 6 1.1
2019-Dec-08 16:49 222 2 gusting 6 0.6
2019-Dec-08 16:44 244 3 gusting 6 0.6
2019-Dec-08 16:38 240 1 gusting 4 0.6
2019-Dec-08 16:33 225 1 gusting 4 0.6
2019-Dec-08 16:28 221 0 gusting 4 0.6
2019-Dec-08 16:23 217 0 gusting 4 -0.0
2019-Dec-08 16:18 216 0 gusting 3 -0.0
2019-Dec-08 16:13 234 0 gusting 4 -0.6
2019-Dec-08 16:08 265 1 gusting 4 -0.6
2019-Dec-08 16:03 200 0 gusting 5 -0.6
2019-Dec-08 15:59 215 2 gusting 5 -1.1
2019-Dec-08 15:54 227 1 gusting 4 -1.1
2019-Dec-08 15:49 217 1 gusting 4 -1.7
2019-Dec-08 15:44 175 0 gusting 4 -1.7
2019-Dec-08 15:39 217 0 gusting 4 -2.2
2019-Dec-08 15:34 223 2 gusting 4 -2.8
2019-Dec-08 15:29 217 0 gusting 4 -3.3
2019-Dec-08 15:23 176 -3.9
2019-Dec-08 15:18 238 -3.9
2019-Dec-08 15:13 305 -4.4
2019-Dec-08 15:08 215 -4.4
2019-Dec-08 15:03 232 -5.0
2019-Dec-08 14:59 190 -5.0
2019-Dec-08 14:54 271 1 gusting 2 -5.6
2019-Dec-08 14:49 223 0 gusting 3 -5.6
2019-Dec-08 14:44 223 -5.6
2019-Dec-08 14:39 200 -6.1
2019-Dec-08 14:33 197 1 gusting 3 -6.1
2019-Dec-08 14:28 281 0 gusting 2 -6.1
2019-Dec-08 14:23 209 0 gusting 2 -6.7
2019-Dec-08 14:18 223 0 gusting 2 -6.7
2019-Dec-08 14:13 274 0 gusting 2 -7.2
2019-Dec-08 14:08 273 -7.2
2019-Dec-08 14:03 209 0 gusting 2 -7.2
2019-Dec-08 13:59 209 0 gusting 2 -7.8
2019-Dec-08 13:54 291 0 gusting 2 -7.8
2019-Dec-08 13:48 291 0 gusting 2 -7.8
2019-Dec-08 13:43 191 -8.3
2019-Dec-08 13:38 232 -8.3
2019-Dec-08 13:33 232 -8.9
2019-Dec-08 13:29 232 -8.9
2019-Dec-08 13:24 231 -8.9
2019-Dec-08 13:19 281 -8.9
2019-Dec-08 13:14 281 -9.4
2019-Dec-08 13:08 281 -9.4
2019-Dec-08 13:03 281 -9.4
2019-Dec-08 12:58 281 -9.4
2019-Dec-08 12:53 281 -9.4
2019-Dec-08 12:48 281 -9.4
2019-Dec-08 12:43 281 -9.4
2019-Dec-08 12:38 281 -9.4
2019-Dec-08 12:33 281 -9.4
2019-Dec-08 12:28 281 -9.4
2019-Dec-08 12:24 281 -9.4
2019-Dec-08 12:19 281 -9.4
2019-Dec-08 12:13 281 -9.4
2019-Dec-08 12:08 281 -9.4
2019-Dec-08 12:03 281 -9.4
2019-Dec-08 11:58 281 -9.4
2019-Dec-08 11:54 281 -9.4
2019-Dec-08 11:49 281 -9.4
2019-Dec-08 11:44 281 -9.4
2019-Dec-08 11:39 281 -9.4
2019-Dec-08 11:34 281 -9.4
2019-Dec-08 11:28 281 -9.4
2019-Dec-08 11:23 281 -9.4
2019-Dec-08 11:18 281 -9.4
2019-Dec-08 11:13 281 -9.4
2019-Dec-08 11:08 281 -9.4
2019-Dec-08 11:03 281 -9.4
2019-Dec-08 10:59 281 -9.4
2019-Dec-08 10:53 281 -9.4
2019-Dec-08 10:48 281 -9.4
2019-Dec-08 10:44 281 -9.4
2019-Dec-08 10:39 281 -9.4
2019-Dec-08 10:33 281 -8.9
2019-Dec-08 10:29 281 -8.9
2019-Dec-08 10:24 281 -8.9
2019-Dec-08 10:19 281 -8.9
2019-Dec-08 10:13 281 -8.9
2019-Dec-08 10:08 281 -8.9
2019-Dec-08 10:03 281 -8.9
2019-Dec-08 09:58 281 -8.9
2019-Dec-08 09:53 281 -8.9
2019-Dec-08 09:48 281 -8.9
2019-Dec-08 09:43 281 -8.9
2019-Dec-08 09:38 281 -8.9
2019-Dec-08 09:33 281 -8.9
2019-Dec-08 09:28 281 -8.9
2019-Dec-08 09:23 281 -8.3
2019-Dec-08 09:18 281 -8.3
2019-Dec-08 09:13 281 -8.3
2019-Dec-08 09:08 281 -8.3
2019-Dec-08 09:03 281 -8.3
2019-Dec-08 08:59 281 -8.3
2019-Dec-08 08:54 281 -8.3
2019-Dec-08 08:48 281 -8.3
2019-Dec-08 08:43 281 -8.3
2019-Dec-08 08:39 281 -8.3
2019-Dec-08 08:33 281 -8.3
2019-Dec-08 08:28 281 -8.3
2019-Dec-08 08:23 281 -8.3
2019-Dec-08 08:18 281 -8.3
2019-Dec-08 08:14 281 -8.3
2019-Dec-08 08:08 281 -8.3
2019-Dec-08 08:03 281 -8.3
2019-Dec-08 07:58 281 -7.8
2019-Dec-08 07:53 281 -7.8
2019-Dec-08 07:48 281 -7.8
2019-Dec-08 07:43 281 -7.8
2019-Dec-08 07:38 281 -7.8
2019-Dec-08 07:34 281 -7.8
2019-Dec-08 07:29 281 -7.2
2019-Dec-08 07:24 281 -7.2
2019-Dec-08 07:18 281 -7.2
2019-Dec-08 07:13 281 0 gusting 2 -7.2
2019-Dec-08 07:08 275 -7.2
2019-Dec-08 07:03 275 -7.2
2019-Dec-08 06:59 275 -7.2
2019-Dec-08 06:53 275 -7.2
2019-Dec-08 06:49 281 -6.7
2019-Dec-08 06:44 281 -6.7
2019-Dec-08 06:38 275 -6.7
2019-Dec-08 06:34 275 -6.7
2019-Dec-08 06:29 275 -6.7
2019-Dec-08 06:23 275 -6.7
2019-Dec-08 06:18 275 -6.7
2019-Dec-08 06:13 269 -6.7
2019-Dec-08 06:08 269 -6.7
2019-Dec-08 06:03 269 -6.7
2019-Dec-08 05:59 269 -6.7
2019-Dec-08 05:54 269 -6.1
2019-Dec-08 05:49 269 -6.1
2019-Dec-08 05:43 269 -6.1
2019-Dec-08 05:38 268 -6.1
2019-Dec-08 05:33 266 -6.1
2019-Dec-08 05:28 299 -6.1
2019-Dec-08 05:23 299 -6.1
2019-Dec-08 05:18 299 -6.1
2019-Dec-08 05:13 299 -6.1
2019-Dec-08 05:09 299 -6.1
2019-Dec-08 05:04 299 0 gusting 2 -6.1
2019-Dec-08 04:59 299 -6.1
2019-Dec-08 04:54 299 -6.1
2019-Dec-08 04:49 299 -5.6
2019-Dec-08 04:44 299 -5.6
2019-Dec-08 04:39 299 0 gusting 1 -5.6
2019-Dec-08 04:33 299 -5.6
2019-Dec-08 04:29 299 -5.6
2019-Dec-08 04:23 281 -5.6
2019-Dec-08 04:19 269 -5.6
2019-Dec-08 04:14 269 -5.6
2019-Dec-08 04:08 279 1 gusting 3 -5.6
2019-Dec-08 04:03 286 -5.6
2019-Dec-08 03:58 286 -5.0
2019-Dec-08 03:53 286 0 gusting 3 -5.0
2019-Dec-08 03:48 286 0 gusting 1 -5.0
2019-Dec-08 03:43 286 -5.0
2019-Dec-08 03:39 286 -5.0
2019-Dec-08 03:34 283 0 gusting 2 -5.0
2019-Dec-08 03:29 282 -5.0
2019-Dec-08 03:23 282 -5.0
2019-Dec-08 03:18 282 -5.0
2019-Dec-08 03:13 282 -4.4
2019-Dec-08 03:08 282 -4.4
2019-Dec-08 03:03 282 -4.4
2019-Dec-08 02:59 277 -4.4
2019-Dec-08 02:54 299 0 gusting 2 -4.4
2019-Dec-08 02:49 281 0 gusting 1 -4.4
2019-Dec-08 02:44 293 -4.4
2019-Dec-08 02:39 293 -4.4
2019-Dec-08 02:34 293 -4.4
2019-Dec-08 02:29 293 -3.9
2019-Dec-08 02:24 293 -3.9
2019-Dec-08 02:19 293 -3.9
2019-Dec-08 02:13 293 -3.9
2019-Dec-08 02:08 293 -3.9
2019-Dec-08 02:03 279 0 gusting 2 -3.9
2019-Dec-08 01:58 277 -3.9
2019-Dec-08 01:53 323 -3.9
2019-Dec-08 01:48 307 0 gusting 2 -3.9
2019-Dec-08 01:43 303 -3.3
2019-Dec-08 01:38 302 0 gusting 3 -3.3
2019-Dec-08 01:33 306 0 gusting 3 -3.3
2019-Dec-08 01:29 297 -3.3
2019-Dec-08 01:23 297 -3.3
2019-Dec-08 01:18 297 -3.3
2019-Dec-08 01:13 297 -3.3
2019-Dec-08 01:08 297 -3.3
2019-Dec-08 01:03 297 -3.3
2019-Dec-08 00:59 285 0 gusting 2 -3.3
2019-Dec-08 00:54 283 -2.8
2019-Dec-08 00:49 281 -2.8
2019-Dec-08 00:44 254 0 gusting 3 -2.8
2019-Dec-08 00:39 280 -2.8
2019-Dec-08 00:34 299 0 gusting 2 -2.8
2019-Dec-08 00:28 304 0 gusting 2 -2.8
2019-Dec-08 00:23 300 0 gusting 2 -2.8
2019-Dec-08 00:18 290 1 gusting 2 -2.8
2019-Dec-08 00:13 338 0 gusting 2 -2.8
2019-Dec-08 00:09 296 -2.8
2019-Dec-08 00:03 292 0 gusting 3 -2.2
2019-Dec-07 23:58 296 -2.2
2019-Dec-07 23:53 296 0 gusting 2 -2.2
2019-Dec-07 23:48 288 0 gusting 2 -2.2
2019-Dec-07 23:44 288 -2.2
2019-Dec-07 23:38 291 0 gusting 2 -2.2
2019-Dec-07 23:34 297 0 gusting 6 -2.2
2019-Dec-07 23:28 302 0 gusting 6 -2.2
2019-Dec-07 23:23 308 1 gusting 4 -2.2
2019-Dec-07 23:18 279 1 gusting 4 -2.2
2019-Dec-07 23:13 314 0 gusting 4 -1.7
2019-Dec-07 23:08 348 -1.7
2019-Dec-07 23:03 302 1 gusting 3 -1.7
2019-Dec-07 22:59 350 1 gusting 4 -1.7
2019-Dec-07 22:53 038 0 gusting 5 -1.7
2019-Dec-07 22:49 355 1 gusting 5 -1.7
2019-Dec-07 22:44 285 1 gusting 4 -1.7
2019-Dec-07 22:39 026 1 gusting 5 -1.7
2019-Dec-07 22:34 296 1 gusting 6 -1.7
2019-Dec-07 22:29 266 2 gusting 6 -1.7
2019-Dec-07 22:24 290 2 gusting 6 -1.7
2019-Dec-07 22:18 318 0 gusting 6 -1.1
2019-Dec-07 22:13 345 0 gusting 6 -1.1
2019-Dec-07 22:08 293 1 gusting 8 -1.1
2019-Dec-07 22:03 259 3 gusting 8 -1.1
2019-Dec-07 21:58 281 1 gusting 6 -1.1
2019-Dec-07 21:53 329 1 gusting 5 -1.1
2019-Dec-07 21:48 294 2 gusting 6 -1.1
2019-Dec-07 21:43 271 2 gusting 6 -1.1
2019-Dec-07 21:39 279 0 gusting 4 -1.1
2019-Dec-07 21:33 312 0 gusting 5 -1.1
2019-Dec-07 21:28 314 0 gusting 5 -1.1
2019-Dec-07 21:23 326 -1.1
2019-Dec-07 21:18 325 1 gusting 4 -0.6
2019-Dec-07 21:13 338 0 gusting 2 -0.6
2019-Dec-07 21:08 277 -0.6
2019-Dec-07 21:03 005 0 gusting 4 -0.6
2019-Dec-07 20:58 335 0 gusting 3 -0.6
2019-Dec-07 20:53 292 1 gusting 4 -0.6
2019-Dec-07 20:48 286 1 gusting 6 -0.6
2019-Dec-07 20:43 275 4 gusting 8 -0.6
2019-Dec-07 20:38 012 2 gusting 8 -0.6
2019-Dec-07 20:33 303 2 gusting 10 -0.6
2019-Dec-07 20:28 283 3 gusting 10 -0.0
2019-Dec-07 20:23 274 3 gusting 9 -0.0
2019-Dec-07 20:18 318 3 gusting 8 -0.6
2019-Dec-07 20:13 289 4 gusting 8 -0.6
2019-Dec-07 20:08 320 1 gusting 7 -0.6
2019-Dec-07 20:03 273 2 gusting 6 -0.6
2019-Dec-07 19:58 248 3 gusting 7 -0.0
2019-Dec-07 19:53 280 3 gusting 9 -0.0
2019-Dec-07 19:48 269 3 gusting 11 -0.0
2019-Dec-07 19:43 271 3 gusting 11 -0.0
2019-Dec-07 19:38 279 5 gusting 9 -0.0
2019-Dec-07 19:33 311 3 gusting 7 0.6
2019-Dec-07 19:28 284 3 gusting 10 0.6
2019-Dec-07 19:23 294 2 gusting 10 0.6
2019-Dec-07 19:18 269 2 gusting 6 0.6
2019-Dec-07 19:13 360 1 gusting 6 0.6
2019-Dec-07 19:08 259 2 gusting 6 0.6
2019-Dec-07 19:03 263 1 gusting 6 0.6
2019-Dec-07 18:59 266 1 gusting 5 0.6
2019-Dec-07 18:53 015 0 gusting 6 0.6
2019-Dec-07 18:48 029 2 gusting 7 0.6
2019-Dec-07 18:43 272 4 gusting 13 0.6
2019-Dec-07 18:38 261 4 gusting 10 0.6
2019-Dec-07 18:33 290 4 gusting 10 0.6
2019-Dec-07 18:28 276 5 gusting 10 0.6
2019-Dec-07 18:24 273 1 gusting 6 0.6
2019-Dec-07 18:18 321 3 gusting 6 0.6
2019-Dec-07 18:13 313 2 gusting 8 0.6
2019-Dec-07 18:08 281 4 gusting 8 0.6
2019-Dec-07 18:03 323 2 gusting 8 0.6
2019-Dec-07 17:58 314 4 gusting 8 0.6
2019-Dec-07 17:53 292 2 gusting 6 0.6
2019-Dec-07 17:48 005 2 gusting 5 0.6
2019-Dec-07 17:43 281 1 gusting 6 -0.0
2019-Dec-07 17:38 277 4 gusting 6 -0.0
2019-Dec-07 17:33 316 0 gusting 7 -0.0
2019-Dec-07 17:28 281 3 gusting 7 -0.0
2019-Dec-07 17:23 294 2 gusting 7 -0.0
2019-Dec-07 17:18 303 4 gusting 7 -0.0
2019-Dec-07 17:13 271 3 gusting 6 -0.0
2019-Dec-07 17:08 321 1 gusting 6 -0.0
2019-Dec-07 17:03 329 1 gusting 6 -0.0
2019-Dec-07 16:58 059 1 gusting 5 -0.0
2019-Dec-07 16:53 360 1 gusting 8 -0.6
2019-Dec-07 16:48 290 4 gusting 8 -0.6
2019-Dec-07 16:43 346 2 gusting 8 -0.6
2019-Dec-07 16:39 343 3 gusting 8 -0.6
2019-Dec-07 16:34 013 2 gusting 6 -0.6
2019-Dec-07 16:29 315 2 gusting 6 -0.6
2019-Dec-07 16:24 300 2 gusting 7 -0.6
2019-Dec-07 16:18 347 3 gusting 9 -1.1
2019-Dec-07 16:13 277 5 gusting 9 -0.6
2019-Dec-07 16:08 265 3 gusting 6 -0.6
2019-Dec-07 16:03 297 2 gusting 6 -1.1
2019-Dec-07 15:59 317 1 gusting 7 -1.1
2019-Dec-07 15:53 311 3 gusting 7 -1.1
2019-Dec-07 15:48 301 3 gusting 8 -1.1
2019-Dec-07 15:43 293 3 gusting 8 -1.1
2019-Dec-07 15:38 005 2 gusting 7 -1.1
2019-Dec-07 15:33 317 3 gusting 7 -1.7
2019-Dec-07 15:29 340 2 gusting 6 -1.7
2019-Dec-07 15:24 291 2 gusting 6 -1.7
2019-Dec-07 15:18 339 2 gusting 5 -1.7
2019-Dec-07 15:13 355 2 gusting 7 -1.7
2019-Dec-07 15:08 345 1 gusting 9 -2.2
2019-Dec-07 15:03 290 3 gusting 7 -2.2
2019-Dec-07 14:59 077 2 gusting 6 -2.2
2019-Dec-07 14:53 146 2 gusting 6 -2.2
2019-Dec-07 14:48 355 2 gusting 6 -2.2
2019-Dec-07 14:43 017 1 gusting 8 -2.2
2019-Dec-07 14:38 254 3 gusting 8 -2.8
2019-Dec-07 14:33 350 1 gusting 6 -2.8
2019-Dec-07 14:29 028 2 gusting 6 -2.8
2019-Dec-07 14:24 346 1 gusting 4 -2.8
2019-Dec-07 14:19 320 1 gusting 6 -2.8
2019-Dec-07 14:08 005 0 gusting 7 -3.3
2019-Dec-07 14:03 309 1 gusting 6 -3.3
2019-Dec-07 13:58 355 2 gusting 5 -3.3
2019-Dec-07 13:54 290 1 gusting 5 -3.3
2019-Dec-07 13:48 290 1 gusting 5 -3.3
2019-Dec-07 13:43 326 1 gusting 5 -3.3
2019-Dec-07 13:38 284 2 gusting 4 -3.3
2019-Dec-07 13:33 302 1 gusting 5 -3.9
2019-Dec-07 13:28 259 2 gusting 4 -3.9
2019-Dec-07 13:23 267 1 gusting 5 -3.9
2019-Dec-07 13:19 308 2 gusting 5 -3.9
2019-Dec-07 13:14 295 1 gusting 4 -3.9
2019-Dec-07 13:08 311 2 gusting 4 -3.9
2019-Dec-07 13:03 286 1 gusting 4 -3.9
2019-Dec-07 12:58 281 1 gusting 5 -3.9
2019-Dec-07 12:54 273 1 gusting 5 -3.9
2019-Dec-07 12:49 292 1 gusting 3 -3.9
2019-Dec-07 12:43 290 1 gusting 3 -3.9
2019-Dec-07 12:38 314 1 gusting 3 -3.9
2019-Dec-07 12:33 291 0 gusting 3 -3.9
2019-Dec-07 12:28 265 1 gusting 4 -3.9
2019-Dec-07 12:23 294 0 gusting 4 -3.9
2019-Dec-07 12:18 306 1 gusting 5 -3.9
2019-Dec-07 12:13 306 1 gusting 5 -3.9
2019-Dec-07 12:08 320 1 gusting 6 -3.9
2019-Dec-07 12:03 294 2 gusting 6 -3.9
2019-Dec-07 11:58 297 0 gusting 5 -3.9
2019-Dec-07 11:53 294 1 gusting 6 -3.9
2019-Dec-07 11:48 308 1 gusting 6 -3.3
2019-Dec-07 11:44 307 -3.3
2019-Dec-07 11:38 326 1 gusting 5 -3.3
2019-Dec-07 11:33 349 0 gusting 4 -3.3
2019-Dec-07 11:28 321 1 gusting 5 -3.3
2019-Dec-07 11:23 275 1 gusting 5 -3.3
2019-Dec-07 11:18 355 1 gusting 4 -3.3
2019-Dec-07 11:14 338 -3.3
2019-Dec-07 11:09 320 0 gusting 3 -3.3
2019-Dec-07 11:03 321 -3.3
2019-Dec-07 10:58 335 -3.3
2019-Dec-07 10:53 328 -3.3
2019-Dec-07 10:48 324 -3.3
2019-Dec-07 10:44 324 0 gusting 3 -3.3
2019-Dec-07 10:38 321 0 gusting 2 -3.3
2019-Dec-07 10:33 005 -2.8
2019-Dec-07 10:28 334 0 gusting 3 -2.8
2019-Dec-07 10:23 011 -2.8
2019-Dec-07 10:18 296 1 gusting 3 -2.8
2019-Dec-07 10:14 328 -2.8
2019-Dec-07 10:08 005 0 gusting 3 -2.8
2019-Dec-07 10:03 019 0 gusting 4 -2.8
2019-Dec-07 09:58 330 0 gusting 4 -2.8
2019-Dec-07 09:54 314 1 gusting 7 -2.8
2019-Dec-07 09:49 355 2 gusting 6 -2.8
2019-Dec-07 09:43 321 2 gusting 6 -2.8
2019-Dec-07 09:38 268 0 gusting 6 -2.8
2019-Dec-07 09:33 339 1 gusting 6 -2.8
2019-Dec-07 09:28 326 1 gusting 4 -2.8
2019-Dec-07 09:23 030 1 gusting 6 -2.8
2019-Dec-07 09:18 028 0 gusting 6 -2.8
2019-Dec-07 09:13 335 1 gusting 4 -2.8
2019-Dec-07 09:08 338 0 gusting 2 -2.8
2019-Dec-07 09:03 345 0 gusting 4 -2.8
2019-Dec-07 08:58 346 1 gusting 4 -2.8
2019-Dec-07 08:53 355 0 gusting 3 -2.8
2019-Dec-07 08:48 349 -2.8
2019-Dec-07 08:43 015 0 gusting 2 -2.2
2019-Dec-07 08:38 025 0 gusting 1 -2.2
2019-Dec-07 08:33 323 -2.2
2019-Dec-07 08:28 329 0 gusting 3 -2.2
2019-Dec-07 08:23 333 -2.2
2019-Dec-07 08:18 275 1 gusting 5 -2.2
2019-Dec-07 08:14 314 0 gusting 5 -2.2
2019-Dec-07 08:09 017 0 gusting 1 -2.2
2019-Dec-07 08:03 022 0 gusting 1 -2.2
2019-Dec-07 07:58 019 -2.2
2019-Dec-07 07:53 019 0 gusting 2 -2.2
2019-Dec-07 07:49 335 -2.2
2019-Dec-07 07:44 335 -2.2
2019-Dec-07 07:39 334 -2.2
2019-Dec-07 07:34 334 -2.2
2019-Dec-07 07:28 342 -2.2
2019-Dec-07 07:23 342 0 gusting 2 -2.2
2019-Dec-07 07:18 304 0 gusting 2 -2.2
2019-Dec-07 07:13 304 0 gusting 4 -1.7
2019-Dec-07 07:08 292 0 gusting 4 -1.7
2019-Dec-07 07:03 271 0 gusting 6 -1.7
2019-Dec-07 06:58 292 2 gusting 6 -1.7
2019-Dec-07 06:53 304 1 gusting 3 -1.7
2019-Dec-07 06:48 283 0 gusting 3 -1.7
2019-Dec-07 06:43 296 0 gusting 4 -1.7
2019-Dec-07 06:38 274 1 gusting 3 -1.7
2019-Dec-07 06:33 293 0 gusting 3 -1.7
2019-Dec-07 06:28 276 0 gusting 3 -1.7
2019-Dec-07 06:24 294 1 gusting 3 -1.1
2019-Dec-07 06:18 304 1 gusting 3 -1.1
2019-Dec-07 06:13 294 2 gusting 3 -1.1
2019-Dec-07 06:08 274 1 gusting 4 -1.1
2019-Dec-07 06:03 290 2 gusting 4 -1.1
2019-Dec-07 05:59 290 1 gusting 4 -1.1
2019-Dec-07 05:53 333 0 gusting 6 -1.1
2019-Dec-07 05:49 294 1 gusting 6 -1.1
2019-Dec-07 05:44 277 1 gusting 5 -1.1
2019-Dec-07 05:38 284 2 gusting 6 -1.1
2019-Dec-07 05:34 294 2 gusting 6 -1.1
2019-Dec-07 05:28 279 2 gusting 5 -1.1
2019-Dec-07 05:23 290 2 gusting 6 -1.1
2019-Dec-07 05:18 277 3 gusting 6 -1.1
2019-Dec-07 05:13 288 0 gusting 6 -1.1
2019-Dec-07 05:08 293 2 gusting 6 -1.1
2019-Dec-07 05:03 292 2 gusting 6 -1.1
2019-Dec-07 04:58 292 2 gusting 7 -1.1
2019-Dec-07 04:53 288 1 gusting 7 -1.1
2019-Dec-07 04:48 335 1 gusting 6 -1.1
2019-Dec-07 04:43 333 2 gusting 6 -1.1
2019-Dec-07 04:38 344 1 gusting 8 -1.1
2019-Dec-07 04:33 350 2 gusting 8 -1.1
2019-Dec-07 04:28 274 3 gusting 8 -1.1
2019-Dec-07 04:23 294 2 gusting 8 -1.1
2019-Dec-07 04:19 005 3 gusting 9 -1.1
2019-Dec-07 04:13 025 4 gusting 9 -1.1
2019-Dec-07 04:08 307 4 gusting 8 -1.1
2019-Dec-07 04:03 306 2 gusting 7 -1.1
2019-Dec-07 03:58 317 2 gusting 7 -0.6
2019-Dec-07 03:53 013 2 gusting 9 -0.6
2019-Dec-07 03:49 360 4 gusting 9 -0.6
2019-Dec-07 03:43 013 1 gusting 6 -0.6
2019-Dec-07 03:38 013 2 gusting 9 -0.6
2019-Dec-07 03:33 308 3 gusting 9 -0.6
2019-Dec-07 03:28 256 2 gusting 9 -0.6
2019-Dec-07 03:23 271 1 gusting 7 -0.6
2019-Dec-07 03:18 341 1 gusting 4 -0.6
2019-Dec-07 03:14 317 0 gusting 6 -0.6
2019-Dec-07 03:08 280 1 gusting 6 -0.6
2019-Dec-07 03:03 263 2 gusting 6 -0.6
2019-Dec-07 02:58 263 2 gusting 7 -0.6
2019-Dec-07 02:53 257 2 gusting 8 -0.6
2019-Dec-07 02:49 344 2 gusting 8 -0.6
2019-Dec-07 02:43 019 1 gusting 6 -0.0
2019-Dec-07 02:38 005 3 gusting 6 -0.0
2019-Dec-07 02:33 355 1 gusting 6 -0.0
2019-Dec-07 02:28 351 1 gusting 6 -0.0
2019-Dec-07 02:23 272 1 gusting 4 -0.0
2019-Dec-07 02:18 066 0 gusting 3 -0.0
2019-Dec-07 02:13 014 0 gusting 2 -0.0
2019-Dec-07 02:08 287 0 gusting 2 -0.0
2019-Dec-07 02:04 291 0 gusting 2 -0.0
2019-Dec-07 01:58 268 0 gusting 4 -0.0
2019-Dec-07 01:53 293 1 gusting 4 -0.0
2019-Dec-07 01:48 289 0 gusting 3 -0.0
2019-Dec-07 01:43 291 1 gusting 3 -0.0
2019-Dec-07 01:38 292 -0.0
2019-Dec-07 01:33 292 0 gusting 1 -0.0
2019-Dec-07 01:28 292 0.6
2019-Dec-07 01:23 291 0.6
2019-Dec-07 01:18 291 0 gusting 3 0.6
2019-Dec-07 01:14 309 0.6
2019-Dec-07 01:08 277 0 gusting 2 0.6
2019-Dec-07 01:03 274 0 gusting 2 0.6
2019-Dec-07 00:58 344 0 gusting 2 0.6
2019-Dec-07 00:53 009 0.6
2019-Dec-07 00:48 009 0.6
2019-Dec-07 00:43 009 0.6
2019-Dec-07 00:38 009 0.6
2019-Dec-07 00:33 009 0.6
2019-Dec-07 00:28 095 0.6
2019-Dec-07 00:23 098 0.6
2019-Dec-07 00:18 098 0.6
2019-Dec-07 00:14 098 0.6
2019-Dec-07 00:08 098 0.6
2019-Dec-07 00:03 098 0.6
2019-Dec-06 23:58 098 0.6
2019-Dec-06 23:53 098 0.6
2019-Dec-06 23:48 098 0.6
2019-Dec-06 23:43 098 0.6
2019-Dec-06 23:38 098 0.6
2019-Dec-06 23:34 098 0.6
2019-Dec-06 23:28 098 0.6
2019-Dec-06 23:23 098 0.6
2019-Dec-06 23:18 098 0.6
2019-Dec-06 23:14 098 0.6
2019-Dec-06 23:08 098 0.6
2019-Dec-06 23:03 098 0.6
2019-Dec-06 22:58 094 0 gusting 1 0.6
2019-Dec-06 22:53 079 0.6
2019-Dec-06 22:48 093 0 gusting 1 0.6
2019-Dec-06 22:43 093 0.6
2019-Dec-06 22:38 080 0.6
2019-Dec-06 22:33 080 0 gusting 1 0.6
2019-Dec-06 22:28 080 0.6
2019-Dec-06 22:23 080 0.6
2019-Dec-06 22:18 080 0.6
2019-Dec-06 22:14 080 0.6
2019-Dec-06 22:09 080 0 gusting 2 -0.0
2019-Dec-06 22:03 080 0 gusting 2 -0.0
2019-Dec-06 21:58 096 -0.0
2019-Dec-06 21:53 091 -0.0
2019-Dec-06 21:48 091 -0.0
2019-Dec-06 21:43 121 0 gusting 1 -0.0
2019-Dec-06 21:38 089 -0.0
2019-Dec-06 21:33 085 -0.0
2019-Dec-06 21:28 096 0 gusting 1 -0.0
2019-Dec-06 21:24 082 -0.0
2019-Dec-06 21:19 201 -0.0
2019-Dec-06 21:14 164 -0.0
2019-Dec-06 21:08 127 -0.0
2019-Dec-06 21:03 119 0 gusting 2 -0.0
2019-Dec-06 20:58 113 -0.0
2019-Dec-06 20:53 113 0 gusting 1 0.6
2019-Dec-06 20:48 117 0.6
2019-Dec-06 20:43 118 0 gusting 1 0.6
2019-Dec-06 20:38 118 0.6
2019-Dec-06 20:33 118 0.6
2019-Dec-06 20:28 118 0.6
2019-Dec-06 20:23 118 0.6
2019-Dec-06 20:18 118 0.6
2019-Dec-06 20:13 118 0.6
2019-Dec-06 20:08 241 0.6
2019-Dec-06 20:03 241 1.1